Wind_Speed
24 24 23 22 21 20 20 19 19 19 18 18 18 18 18 18 19 19 19 18 18 18 18 18 18 18 18 18 18 18 18 18 18 18 18 18 18 18 18 18 18 17 17
26 26 25 24 24 23 22 21 21 20 20 20 20 19 19 19 19 20 20 20 20 20 19 19 19 18 19 19 19 19 19 19 19 19 19 18 18 19 19 19 19 19 18
27 27 26 26 25 25 24 24 23 22 22 21 21 21 21 21 20 20 21 21 22 22 21 21 21 20 20 20 20 21 20 20 19 19 20 20 20 20 20 20 20 20 20
29 29 28 27 27 26 25 25 24 24 24 23 22 22 22 22 22 22 22 22 23 23 23 23 23 23 23 23 22 22 21 21 21 21 21 21 21 21 21 20 20 21 21
31 31 30 29 29 28 27 26 26 25 25 25 24 24 23 23 24 24 23 24 24 24 24 24 24 24 24 24 24 24 23 23 23 23 23 23 23 23 23 22 22 23 23
33 32 31 30 30 30 29 28 28 27 27 27 27 26 26 25 25 25 26 25 25 25 25 25 25 26 25 25 25 25 25 25 25 25 25 25 25 24 24 25 24 24 25
35 34 33 32 32 32 31 30 30 30 30 29 29 29 28 28 28 27 27 27 26 27 27 26 26 26 26 27 27 27 27 27 26 26 26 26 26 26 26 26 26 27 27
37 35 34 34 34 33 33 32 31 31 31 31 31 30 30 30 30 29 29 28 28 28 28 27 27 28 28 28 28 28 28 28 28 28 28 27 27 27 28 28 28 28 28
39 37 36 36 35 35 34 34 33 32 32 32 31 31 31 31 30 30 30 29 29 29 29 28 29 29 29 29 29 29 28 29 29 28 28 28 29 29 29 29 29 29 30
41 39 39 38 37 36 35 35 34 34 33 33 32 32 31 31 30 30 30 29 30 30 30 30 30 30 30 30 30 30 29 29 29 29 30 29 30 30 31 31 31 31 31
43 42 41 40 39 38 37 36 36 35 35 35 34 33 33 32 32 31 30 30 30 30 30 31 31 30 31 30 30 30 30 30 30 30 30 30 31 32 32 32 32 31 32
43 43 43 42 41 40 39 38 38 37 37 36 36 35 35 34 33 33 33 32 32 32 33 32 32 32 31 31 30 31 30 31 31 31 31 31 31 32 32 33 33 33 33
43 43 43 43 43 42 41 40 39 38 38 37 37 37 36 36 35 35 34 34 33 34 34 34 33 33 32 32 31 31 31 31 32 32 32 32 32 33 33 33 34 34 35
45 44 44 44 44 44 43 42 41 40 39 38 38 37 37 37 37 37 36 35 35 35 35 35 34 34 33 33 32 32 32 32 33 33 34 33 34 34 34 34 35 35 36
47 45 45 44 44 44 44 43 42 41 40 39 38 38 38 38 38 38 38 37 36 36 36 35 35 35 34 34 34 34 34 35 35 35 36 36 36 36 36 37 37 37 38
48 47 47 46 44 43 43 43 43 42 41 41 40 39 39 39 38 38 38 37 37 37 36 36 36 36 36 36 36 36 37 36 37 37 38 38 38 39 39 39 39 40 40
49 48 47 47 45 44 44 43 43 43 43 42 42 41 40 40 39 39 39 38 38 38 38 37 37 37 38 38 38 39 39 39 39 39 40 40 40 40 41 41 41 41 41
50 49 49 47 46 45 44 44 44 44 44 44 43 42 42 41 40 40 40 40 40 39 39 39 38 38 39 40 40 40 40 40 41 41 42 42 42 42 43 43 44 43 43
51 50 49 48 48 47 46 45 45 45 45 45 44 44 43 43 42 42 42 41 41 41 40 40 40 41 41 42 42 42 42 43 43 43 43 44 44 44 45 45 46 46 46
51 51 50 50 49 48 48 47 46 46 46 46 46 45 45 44 44 44 44 43 43 42 42 42 42 43 43 44 44 44 44 45 45 44 45 45 46 46 47 47 47 47 47
52 52 52 51 51 49 49 49 48 47 47 47 47 46 46 46 46 46 45 45 45 44 44 43 43 43 44 44 45 45 46 46 46 46 47 47 47 47 48 48 47 47 47
52 52 52 52 51 51 50 50 50 49 48 48 47 47 47 47 47 47 47 46 46 45 44 44 44 44 44 45 45 45 46 46 46 47 47 48 48 48 48 48 48 48 48
53 52 52 52 52 51 51 50 50 50 50 49 48 48 48 48 48 48 48 47 46 47 46 46 45 45 46 45 45 46 45 45 46 46 47 47 47 47 47 48 48 48 48
51 51 51 52 52 52 52 51 51 51 51 50 49 49 49 48 49 48 48 48 48 48 47 47 47 46 46 46 46 46 46 46 46 46 46 46 47 47 48 48 48 48 48
51 51 52 52 52 52 52 52 52 51 51 51 50 49 49 49 48 49 49 49 48 48 48 48 47 47 47 47 47 47 47 47 46 46 47 47 47 47 47 48 48 49 49
52 51 52 51 51 51 51 51 52 52 51 51 50 50 50 50 49 49 50 49 49 48 49 49 48 48 48 48 48 48 48 47 47 47 47 47 47 48 47 48 49 49 50
Wind_Direction
234 235 237 239 240 242 243 244 246 248 249 251 253 254 256 259 262 264 267 269 271 274 278 281 283 285 286 289 292 293 295 297 299 300 302 303 303 302 301 302 302 302 301
234 236 238 240 241 243 245 246 248 250 250 251 253 255 257 260 262 265 266 267 269 272 276 279 281 284 286 288 290 292 293 295 296 298 300 301 301 300 300 300 298 297 298
235 236 238 241 242 243 245 246 248 250 252 252 253 254 257 260 263 265 267 268 268 270 273 276 279 281 284 287 288 290 292 293 294 296 297 297 298 298 298 298 298 296 295
236 237 238 241 242 242 243 246 247 249 252 253 254 256 258 260 263 265 267 269 270 270 272 274 277 279 282 284 286 288 289 290 291 293 295 295 295 296 296 295 295 295 294
237 237 239 241 242 243 243 245 247 249 251 252 255 257 259 261 264 265 267 268 270 271 272 274 276 278 280 282 284 286 287 288 289 291 292 292 293 294 293 292 292 293 292
238 239 240 241 243 243 244 245 248 251 252 254 256 257 259 261 265 267 266 267 268 270 271 273 275 277 279 281 283 284 285 286 288 289 289 289 290 292 292 291 290 290 291
238 239 240 242 243 244 245 247 249 251 252 254 255 257 258 261 264 265 266 266 267 269 270 273 275 277 279 280 281 283 283 284 286 287 288 288 289 289 289 290 289 289 289
238 240 241 243 245 245 246 248 250 252 254 255 256 257 259 261 263 265 266 267 267 268 269 272 275 277 278 279 279 280 282 283 285 286 286 287 287 289 290 290 290 290 289
238 240 241 243 245 245 247 248 250 252 254 255 256 258 260 261 263 264 265 266 267 268 269 271 273 275 276 278 279 279 280 282 285 285 285 286 287 289 290 290 290 290 289
239 240 241 243 244 245 247 249 251 252 253 254 255 256 259 260 262 263 264 265 266 268 269 271 273 275 276 277 277 277 279 281 283 285 285 286 287 288 289 290 290 290 290
239 241 242 243 244 245 247 249 251 252 253 255 256 257 258 260 261 263 264 265 266 268 269 272 273 275 276 276 277 277 279 280 282 284 285 286 287 287 288 289 290 290 290
240 242 243 244 244 246 248 250 252 253 254 254 256 257 258 259 261 262 264 264 266 268 269 272 273 274 275 276 276 277 278 280 282 285 285 286 287 288 288 287 289 289 290
241 243 243 244 245 246 248 250 251 252 254 255 256 257 258 259 261 262 264 264 266 268 269 272 273 274 274 275 275 276 278 280 282 283 284 285 286 287 288 287 289 290 290
242 243 244 245 246 247 248 249 251 251 253 255 256 257 258 259 261 262 263 265 266 266 268 271 273 273 274 274 274 275 278 280 281 282 283 284 285 286 287 288 289 289 290
242 243 244 245 246 247 248 249 251 251 253 254 256 257 258 259 261 262 263 265 265 266 267 269 271 272 273 273 273 275 277 278 279 281 283 283 284 284 285 286 287 288 289
242 243 244 245 246 247 248 249 250 251 253 254 255 257 259 260 261 263 264 265 265 265 267 268 269 271 271 272 274 275 277 278 279 280 282 283 284 284 285 286 287 287 288
241 242 243 245 246 247 248 249 250 251 253 254 255 257 258 259 261 262 263 265 266 266 267 268 269 270 271 272 274 275 277 278 279 281 282 283 284 284 285 285 286 286 287
241 242 244 245 246 247 249 250 251 252 253 255 256 256 257 258 260 262 263 265 266 267 267 268 269 269 271 272 274 275 277 278 280 281 282 283 283 284 284 285 286 286 286
241 243 245 246 247 248 250 251 252 252 253 254 256 256 258 259 260 262 264 265 266 267 267 268 268 269 271 272 274 275 277 279 281 282 282 282 283 284 285 285 286 286 286
242 244 245 246 247 249 250 251 252 252 253 254 255 256 257 259 261 263 264 265 266 267 268 268 269 270 271 273 274 276 277 279 280 281 281 282 283 283 284 284 285 285 286
243 244 246 247 248 249 250 251 252 252 253 254 255 256 257 258 260 262 264 265 266 268 269 270 271 271 273 274 275 276 276 278 279 280 281 282 282 283 283 284 284 285 285
243 245 246 247 248 249 250 251 252 253 253 255 255 256 257 259 261 262 264 265 266 268 268 269 271 273 273 274 275 276 277 278 279 281 282 282 282 283 283 283 284 284 285
244 245 246 247 248 249 251 252 253 254 254 255 256 257 258 259 260 262 264 265 266 267 268 269 271 272 274 274 275 276 278 279 280 281 281 281 282 283 283 284 285 285 285
245 246 246 247 248 249 251 252 253 254 255 256 257 258 258 259 260 262 263 264 265 266 267 268 270 272 273 275 276 277 278 279 281 281 282 282 282 283 284 285 285 286 287
245 246 246 248 249 250 251 252 253 254 255 256 258 258 259 260 261 262 263 263 265 266 267 268 270 271 272 274 275 277 278 279 280 280 281 282 282 283 284 285 286 287 288
244 245 246 248 249 250 251 253 254 254 255 256 257 258 259 260 261 262 262 263 264 265 266 268 270 271 272 273 274 276 278 279 279 280 281 282 283 283 283 284 286 287 289
Height
5834 5836 5839 5841 5844 5846 5848 5849 5851 5853 5855 5856 5857 5859 5860 5861 5862 5863 5864 5864 5865 5865 5865 5866 5865 5865 5865 5865 5864 5864 5863 5863 5862 5861 5860 5858 5857 5856 5855 5854 5853 5852 5851
5829 5832 5834 5837 5839 5841 5843 5845 5847 5849 5850 5852 5853 5855 5856 5857 5858 5859 5860 5861 5861 5862 5862 5862 5862 5862 5862 5861 5861 5860 5860 5859 5858 5857 5856 5855 5854 5853 5851 5850 5849 5848 5847
5824 5827 5829 5832 5834 5837 5839 5841 5843 5844 5846 5847 5849 5850 5852 5853 5854 5855 5856 5856 5857 5857 5858 5858 5858 5858 5858 5857 5857 5856 5856 5855 5854 5853 5852 5851 5850 5849 5847 5846 5845 5844 5843
5818 5821 5824 5827 5829 5831 5833 5836 5838 5840 5841 5843 5844 5846 5847 5848 5849 5850 5851 5851 5852 5853 5853 5853 5854 5853 5853 5853 5853 5852 5851 5851 5850 5849 5848 5847 5846 5845 5843 5842 5841 5840 5839
5812 5815 5818 5821 5823 5826 5828 5830 5832 5834 5836 5838 5839 5841 5842 5843 5844 5845 5846 5846 5847 5847 5848 5848 5849 5849 5848 5848 5848 5847 5847 5846 5845 5845 5844 5842 5841 5840 5839 5838 5837 5836 5835
5805 5809 5812 5815 5817 5820 5823 5825 5827 5829 5831 5832 5834 5836 5837 5838 5839 5840 5840 5841 5841 5842 5843 5843 5843 5843 5843 5843 5843 5842 5842 5841 5840 5840 5839 5837 5836 5835 5834 5833 5832 5831 5830
5798 5802 5805 5808 5811 5814 5816 5819 5821 5822 5824 5826 5828 5830 5831 5832 5833 5834 5835 5835 5836 5836 5837 5837 5837 5837 5838 5837 5837 5837 5836 5836 5835 5834 5833 5832 5831 5830 5829 5827 5826 5825 5824
5791 5795 5798 5801 5804 5807 5810 5812 5814 5816 5818 5820 5822 5823 5824 5826 5827 5828 5829 5829 5830 5830 5831 5831 5831 5831 5831 5831 5831 5831 5830 5830 5829 5828 5827 5826 5825 5824 5823 5822 5820 5819 5818
5783 5787 5790 5794 5797 5800 5802 5805 5807 5809 5811 5813 5814 5816 5818 5819 5821 5822 5822 5823 5823 5824 5824 5825 5825 5825 5825 5825 5824 5824 5824 5823 5823 5822 5821 5820 5819 5818 5817 5816 5814 5813 5811
5775 5779 5782 5786 5789 5792 5794 5797 5800 5802 5804 5806 5807 5809 5811 5812 5814 5815 5816 5816 5816 5817 5818 5818 5818 5818 5818 5818 5818 5817 5817 5817 5816 5815 5814 5814 5813 5811 5810 5809 5808 5806 5805
5766 5770 5774 5777 5780 5783 5786 5789 5792 5794 5796 5798 5800 5801 5803 5805 5806 5808 5809 5809 5810 5810 5811 5811 5811 5811 5810 5810 5810 5810 5810 5810 5809 5808 5807 5807 5806 5805 5803 5802 5801 5799 5798
5757 5760 5764 5768 5771 5775 5778 5780 5783 5785 5788 5790 5792 5794 5795 5797 5798 5800 5801 5802 5802 5803 5803 5803 5803 5803 5803 5802 5802 5803 5803 5802 5802 5801 5800 5799 5798 5797 5796 5794 5793 5792 5790
5747 5751 5755 5758 5762 5765 5769 5771 5774 5776 5779 5781 5783 5785 5787 5789 5790 5792 5793 5794 5794 5795 5795 5795 5795 5794 5795 5794 5795 5795 5795 5795 5794 5794 5793 5792 5791 5790 5788 5787 5786 5784 5782
5738 5742 5745 5749 5752 5756 5759 5762 5765 5767 5770 5772 5774 5776 5778 5780 5782 5783 5784 5785 5786 5787 5787 5787 5786 5786 5786 5786 5787 5787 5787 5787 5786 5786 5785 5784 5783 5781 5780 5779 5777 5776 5774
5728 5732 5736 5739 5742 5746 5749 5752 5755 5758 5760 5763 5765 5767 5769 5771 5772 5774 5775 5776 5778 5778 5779 5778 5778 5778 5778 5778 5778 5779 5779 5779 5778 5777 5776 5775 5774 5773 5772 5770 5769 5767 5766
5718 5722 5726 5729 5733 5736 5739 5742 5745 5748 5751 5753 5756 5758 5760 5761 5763 5764 5766 5767 5768 5769 5770 5770 5770 5770 5769 5770 5770 5770 5770 5770 5769 5768 5767 5766 5765 5764 5762 5761 5760 5758 5756
5707 5711 5715 5719 5723 5726 5729 5732 5735 5738 5741 5743 5746 5748 5750 5752 5753 5755 5756 5757 5758 5759 5760 5761 5761 5761 5761 5761 5761 5761 5761 5760 5760 5759 5758 5756 5755 5754 5753 5751 5749 5748 5746
5696 5700 5705 5709 5712 5716 5719 5721 5724 5727 5730 5733 5735 5738 5740 5742 5743 5745 5746 5747 5748 5749 5750 5751 5751 5751 5751 5751 5751 5751 5751 5750 5749 5748 5747 5746 5745 5743 5742 5740 5739 5737 5735
5685 5689 5693 5698 5701 5705 5708 5711 5714 5717 5719 5722 5724 5727 5729 5731 5733 5734 5736 5737 5738 5739 5740 5741 5741 5741 5741 5741 5741 5741 5740 5740 5739 5738 5736 5735 5734 5732 5731 5729 5727 5725 5724
5673 5678 5682 5686 5690 5693 5696 5699 5703 5705 5708 5711 5713 5716 5718 5720 5722 5723 5725 5726 5727 5728 5729 5730 5730 5731 5731 5731 5731 5730 5730 5729 5728 5726 5725 5723 5722 5720 5719 5717 5716 5713 5711
5662 5666 5670 5674 5678 5682 5685 5688 5691 5694 5697 5699 5702 5704 5706 5708 5710 5712 5714 5715 5716 5717 5718 5718 5719 5719 5719 5719 5719 5718 5718 5717 5716 5714 5713 5711 5710 5708 5706 5704 5703 5701 5699
5650 5654 5658 5662 5666 5669 5672 5675 5678 5682 5685 5687 5690 5692 5695 5697 5699 5700 5702 5703 5704 5705 5706 5707 5707 5708 5708 5707 5707 5706 5706 5705 5705 5703 5700 5699 5697 5696 5694 5692 5690 5688 5686
5638 5642 5646 5650 5654 5657 5660 5663 5666 5669 5672 5675 5678 5680 5682 5684 5686 5688 5689 5690 5692 5693 5694 5695 5696 5696 5696 5696 5695 5695 5693 5693 5692 5690 5688 5687 5685 5683 5681 5679 5677 5675 5673
5626 5630 5634 5637 5641 5644 5647 5650 5653 5656 5660 5662 5665 5667 5669 5671 5673 5675 5677 5678 5679 5681 5682 5683 5684 5684 5683 5683 5683 5682 5681 5681 5680 5678 5676 5675 5673 5671 5669 5667 5665 5662 5660
5613 5617 5621 5624 5628 5632 5635 5638 5641 5644 5647 5649 5652 5654 5656 5659 5661 5662 5664 5666 5667 5668 5668 5669 5670 5671 5671 5670 5670 5669 5669 5668 5668 5666 5664 5663 5661 5659 5657 5655 5652 5650 5647
5600 5604 5608 5612 5615 5619 5622 5625 5628 5631 5634 5637 5639 5641 5644 5646 5647 5649 5650 5652 5654 5655 5656 5657 5657 5658 5658 5658 5657 5656 5656 5655 5654 5654 5652 5650 5648 5646 5646 5644 5640 5637 5634